Year,Month,Day,Hour,Minute,Value (Times are PST for temperature in C)
2008,06,15,00,00,9.10
2008,06,15,00,01,9.10
2008,06,15,00,02,9.10
2008,06,15,00,03,9.00
2008,06,15,00,04,9.00
2008,06,15,00,05,9.00
2008,06,15,00,06,9.00
2008,06,15,00,07,9.00
2008,06,15,00,08,8.90
2008,06,15,00,09,8.90
2008,06,15,00,10,8.90
2008,06,15,00,11,9.00
2008,06,15,00,12,9.00
2008,06,15,00,13,9.00
2008,06,15,00,14,9.00
2008,06,15,00,15,9.00
2008,06,15,00,16,9.00
2008,06,15,00,17,9.00
2008,06,15,00,18,9.00
2008,06,15,00,19,9.00
2008,06,15,00,20,9.00
2008,06,15,00,21,8.90
2008,06,15,00,22,8.90
2008,06,15,00,23,8.90
2008,06,15,00,24,8.80
2008,06,15,00,25,8.80
2008,06,15,00,26,8.80
2008,06,15,00,27,8.70
2008,06,15,00,28,8.70
2008,06,15,00,29,8.70
2008,06,15,00,30,8.70
2008,06,15,00,31,8.70
2008,06,15,00,32,8.70
2008,06,15,00,33,8.70
2008,06,15,00,34,8.70
2008,06,15,00,35,8.70
2008,06,15,00,36,8.70
2008,06,15,00,37,8.70
2008,06,15,00,38,8.70
2008,06,15,00,39,8.70
2008,06,15,00,40,8.70
2008,06,15,00,41,8.70
2008,06,15,00,42,8.70
2008,06,15,00,43,8.70
2008,06,15,00,44,8.70
2008,06,15,00,45,8.70
2008,06,15,00,46,8.70
2008,06,15,00,47,8.60
2008,06,15,00,48,8.60
2008,06,15,00,49,8.50
2008,06,15,00,50,8.50
2008,06,15,00,51,8.50
2008,06,15,00,52,8.40
2008,06,15,00,53,8.40
2008,06,15,00,54,8.30
2008,06,15,00,55,8.30
2008,06,15,00,56,8.20
2008,06,15,00,57,8.20
2008,06,15,00,58,8.20
2008,06,15,00,59,8.20
2008,06,15,01,00,8.20
2008,06,15,01,01,8.20
2008,06,15,01,02,8.20
2008,06,15,01,03,8.20
2008,06,15,01,04,8.20
2008,06,15,01,05,8.20
2008,06,15,01,06,8.20
2008,06,15,01,07,8.20
2008,06,15,01,08,8.20
2008,06,15,01,09,8.20
2008,06,15,01,10,8.20
2008,06,15,01,11,8.10
2008,06,15,01,12,8.10
2008,06,15,01,13,8.10
2008,06,15,01,14,8.10
2008,06,15,01,15,8.10
2008,06,15,01,16,8.10
2008,06,15,01,17,8.00
2008,06,15,01,18,8.00
2008,06,15,01,19,8.00
2008,06,15,01,20,8.00
2008,06,15,01,21,8.00
2008,06,15,01,22,7.90
2008,06,15,01,23,7.90
2008,06,15,01,24,7.90
2008,06,15,01,25,7.90
2008,06,15,01,26,7.90
2008,06,15,01,27,7.90
2008,06,15,01,28,7.90
2008,06,15,01,29,7.90
2008,06,15,01,30,7.80
2008,06,15,01,31,7.80
2008,06,15,01,32,7.80
2008,06,15,01,33,7.80
2008,06,15,01,34,7.80
2008,06,15,01,35,7.80
2008,06,15,01,36,7.80
2008,06,15,01,37,7.80
2008,06,15,01,38,7.80
2008,06,15,01,39,7.80
2008,06,15,01,40,7.80
2008,06,15,01,41,7.80
2008,06,15,01,42,7.70
2008,06,15,01,43,7.70
2008,06,15,01,44,7.70
2008,06,15,01,45,7.70
2008,06,15,01,46,7.70
2008,06,15,01,47,7.70
2008,06,15,01,48,7.60
2008,06,15,01,49,7.60
2008,06,15,01,50,7.60
2008,06,15,01,51,7.60
2008,06,15,01,52,7.60
2008,06,15,01,53,7.60
2008,06,15,01,54,7.50
2008,06,15,01,55,7.50
2008,06,15,01,56,7.50
2008,06,15,01,57,7.50
2008,06,15,01,58,7.50
2008,06,15,01,59,7.40
2008,06,15,02,00,7.40
2008,06,15,02,01,7.40
2008,06,15,02,02,7.40
2008,06,15,02,03,7.40
2008,06,15,02,04,7.40
2008,06,15,02,05,7.40
2008,06,15,02,06,7.30
2008,06,15,02,07,7.30
2008,06,15,02,08,7.30
2008,06,15,02,09,7.30
2008,06,15,02,10,7.30
2008,06,15,02,11,7.30
2008,06,15,02,12,7.30
2008,06,15,02,13,7.30
2008,06,15,02,14,7.30
2008,06,15,02,15,7.30
2008,06,15,02,16,7.30
2008,06,15,02,17,7.20
2008,06,15,02,18,7.20
2008,06,15,02,19,7.20
2008,06,15,02,20,7.20
2008,06,15,02,21,7.20
2008,06,15,02,22,7.20
2008,06,15,02,23,7.20
2008,06,15,02,24,7.20
2008,06,15,02,25,7.20
2008,06,15,02,26,7.20
2008,06,15,02,27,7.20
2008,06,15,02,28,7.20
2008,06,15,02,29,7.20
2008,06,15,02,30,7.20
2008,06,15,02,31,7.20
2008,06,15,02,32,7.20
2008,06,15,02,33,7.20
2008,06,15,02,34,7.20
2008,06,15,02,35,7.20
2008,06,15,02,36,7.10
2008,06,15,02,37,7.10
2008,06,15,02,38,7.10
2008,06,15,02,39,7.10
2008,06,15,02,40,7.10
2008,06,15,02,41,7.00
2008,06,15,02,42,7.00
2008,06,15,02,43,7.00
2008,06,15,02,44,7.00
2008,06,15,02,45,7.00
2008,06,15,02,46,7.00
2008,06,15,02,47,7.00
2008,06,15,02,48,6.90
2008,06,15,02,49,6.90
2008,06,15,02,50,6.90
2008,06,15,02,51,6.80
2008,06,15,02,52,6.80
2008,06,15,02,53,6.80
2008,06,15,02,54,6.80
2008,06,15,02,55,6.80
2008,06,15,02,56,6.80
2008,06,15,02,57,6.70
2008,06,15,02,58,6.70
2008,06,15,02,59,6.70
2008,06,15,03,00,6.70
2008,06,15,03,01,6.70
2008,06,15,03,02,6.70
2008,06,15,03,03,6.60
2008,06,15,03,04,6.60
2008,06,15,03,05,6.60
2008,06,15,03,06,6.60
2008,06,15,03,07,6.60
2008,06,15,03,08,6.60
2008,06,15,03,09,6.60
2008,06,15,03,10,6.60
2008,06,15,03,11,6.60
2008,06,15,03,12,6.60
2008,06,15,03,13,6.60
2008,06,15,03,14,6.60
2008,06,15,03,15,6.60
2008,06,15,03,16,6.60
2008,06,15,03,17,6.60
2008,06,15,03,18,6.60
2008,06,15,03,19,6.60
2008,06,15,03,20,6.50
2008,06,15,03,21,6.40
2008,06,15,03,22,6.40
2008,06,15,03,23,6.40
2008,06,15,03,24,6.40
2008,06,15,03,25,6.40
2008,06,15,03,26,6.40
2008,06,15,03,27,6.40
2008,06,15,03,28,6.40
2008,06,15,03,29,6.40
2008,06,15,03,30,6.40
2008,06,15,03,31,6.40
2008,06,15,03,32,6.40
2008,06,15,03,33,6.40
2008,06,15,03,34,6.40
2008,06,15,03,35,6.40
2008,06,15,03,36,6.40
2008,06,15,03,37,6.40
2008,06,15,03,38,6.40
2008,06,15,03,39,6.30
2008,06,15,03,40,6.30
2008,06,15,03,41,6.30
2008,06,15,03,42,6.30
2008,06,15,03,43,6.30
2008,06,15,03,44,6.20
2008,06,15,03,45,6.20
2008,06,15,03,46,6.20
2008,06,15,03,47,6.20
2008,06,15,03,48,6.20
2008,06,15,03,49,6.20
2008,06,15,03,50,6.20
2008,06,15,03,51,6.20
2008,06,15,03,52,6.10
2008,06,15,03,53,6.10
2008,06,15,03,54,6.10
2008,06,15,03,55,6.20
2008,06,15,03,56,6.20
2008,06,15,03,57,6.20
2008,06,15,03,58,6.20
2008,06,15,03,59,6.20
2008,06,15,04,00,6.20
2008,06,15,04,01,6.20
2008,06,15,04,02,6.20
2008,06,15,04,03,6.20
2008,06,15,04,04,6.20
2008,06,15,04,05,6.20
2008,06,15,04,06,6.20
2008,06,15,04,07,6.20
2008,06,15,04,08,6.10
2008,06,15,04,09,6.10
2008,06,15,04,10,6.10
2008,06,15,04,11,6.10
2008,06,15,04,12,6.10
2008,06,15,04,13,6.10
2008,06,15,04,14,6.10
2008,06,15,04,15,6.10
2008,06,15,04,16,6.10
2008,06,15,04,17,6.10
2008,06,15,04,18,6.10
2008,06,15,04,19,6.10
2008,06,15,04,20,6.20
2008,06,15,04,21,6.20
2008,06,15,04,22,6.20
2008,06,15,04,23,6.20
2008,06,15,04,24,6.20
2008,06,15,04,25,6.20
2008,06,15,04,26,6.20
2008,06,15,04,27,6.20
2008,06,15,04,28,6.20
2008,06,15,04,29,6.20
2008,06,15,04,30,6.20
2008,06,15,04,31,6.20
2008,06,15,04,32,6.20
2008,06,15,04,33,6.20
2008,06,15,04,34,6.20
2008,06,15,04,35,6.20
2008,06,15,04,36,6.20
2008,06,15,04,37,6.20
2008,06,15,04,38,6.20
2008,06,15,04,39,6.10
2008,06,15,04,40,6.10
2008,06,15,04,41,6.10
2008,06,15,04,42,6.00
2008,06,15,04,43,6.00
2008,06,15,04,44,6.00
2008,06,15,04,45,6.00
2008,06,15,04,46,6.00
2008,06,15,04,47,5.90
2008,06,15,04,48,5.90
2008,06,15,04,49,5.90
2008,06,15,04,50,5.90
2008,06,15,04,51,5.90
2008,06,15,04,52,5.90
2008,06,15,04,53,5.90
2008,06,15,04,54,5.90
2008,06,15,04,55,5.90
2008,06,15,04,56,5.90
2008,06,15,04,57,5.90
2008,06,15,04,58,6.00
2008,06,15,04,59,6.00
2008,06,15,05,00,6.00
2008,06,15,05,01,6.00
2008,06,15,05,02,5.90
2008,06,15,05,03,5.90
2008,06,15,05,04,5.90
2008,06,15,05,05,5.90
2008,06,15,05,06,5.80
2008,06,15,05,07,5.80
2008,06,15,05,08,5.80
2008,06,15,05,09,5.80
2008,06,15,05,10,5.70
2008,06,15,05,11,5.70
2008,06,15,05,12,5.70
2008,06,15,05,13,5.70
2008,06,15,05,14,5.70
2008,06,15,05,15,5.70
2008,06,15,05,16,5.70
2008,06,15,05,17,5.70
2008,06,15,05,18,5.70
2008,06,15,05,19,5.70
2008,06,15,05,20,5.70
2008,06,15,05,21,5.70
2008,06,15,05,22,5.70
2008,06,15,05,23,5.70
2008,06,15,05,24,5.70
2008,06,15,05,25,5.70
2008,06,15,05,26,5.70
2008,06,15,05,27,5.70
2008,06,15,05,28,5.70
2008,06,15,05,29,5.70
2008,06,15,05,30,5.70
2008,06,15,05,31,5.70
2008,06,15,05,32,5.70
2008,06,15,05,33,5.70
2008,06,15,05,34,5.70
2008,06,15,05,35,5.70
2008,06,15,05,36,5.70
2008,06,15,05,37,5.70
2008,06,15,05,38,5.70
2008,06,15,05,39,5.70
2008,06,15,05,40,5.70
2008,06,15,05,41,5.80
2008,06,15,05,42,5.80
2008,06,15,05,43,5.80
2008,06,15,05,44,5.80
2008,06,15,05,45,5.80
2008,06,15,05,46,5.80
2008,06,15,05,47,5.80
2008,06,15,05,48,5.80
2008,06,15,05,49,5.80
2008,06,15,05,50,5.90
2008,06,15,05,51,5.90
2008,06,15,05,52,5.90
2008,06,15,05,53,5.90
2008,06,15,05,54,5.90
2008,06,15,05,55,5.90
2008,06,15,05,56,5.90
2008,06,15,05,57,6.00
2008,06,15,05,58,6.00
2008,06,15,05,59,6.10
2008,06,15,06,00,6.10
2008,06,15,06,01,6.10
2008,06,15,06,02,6.10
2008,06,15,06,03,6.20
2008,06,15,06,04,6.20
2008,06,15,06,05,6.20
2008,06,15,06,06,6.20
2008,06,15,06,07,6.20
2008,06,15,06,08,6.20
2008,06,15,06,09,6.30
2008,06,15,06,10,6.30
2008,06,15,06,11,6.30
2008,06,15,06,12,6.40
2008,06,15,06,13,6.40
2008,06,15,06,14,6.40
2008,06,15,06,15,6.40
2008,06,15,06,16,6.40
2008,06,15,06,17,6.40
2008,06,15,06,18,6.50
2008,06,15,06,19,6.60
2008,06,15,06,20,6.60
2008,06,15,06,21,6.60
2008,06,15,06,22,6.70
2008,06,15,06,23,6.70
2008,06,15,06,24,6.70
2008,06,15,06,25,6.80
2008,06,15,06,26,6.80
2008,06,15,06,27,6.80
2008,06,15,06,28,6.80
2008,06,15,06,29,6.90
2008,06,15,06,30,6.90
2008,06,15,06,31,7.00
2008,06,15,06,32,7.00
2008,06,15,06,33,7.00
2008,06,15,06,34,7.10
2008,06,15,06,35,7.10
2008,06,15,06,36,7.20
2008,06,15,06,37,7.20
2008,06,15,06,38,7.30
2008,06,15,06,39,7.30
2008,06,15,06,40,7.30
2008,06,15,06,41,7.30
2008,06,15,06,42,7.40
2008,06,15,06,43,7.50
2008,06,15,06,44,7.50
2008,06,15,06,45,7.60
2008,06,15,06,46,7.70
2008,06,15,06,47,7.80
2008,06,15,06,48,7.80
2008,06,15,06,49,7.80
2008,06,15,06,50,7.90
2008,06,15,06,51,8.00
2008,06,15,06,52,8.10
2008,06,15,06,53,8.20
2008,06,15,06,54,8.30
2008,06,15,06,55,8.50
2008,06,15,06,56,8.60
2008,06,15,06,57,8.80
2008,06,15,06,58,8.90
2008,06,15,06,59,9.00
2008,06,15,07,00,9.10
2008,06,15,07,01,9.20
2008,06,15,07,02,9.20
2008,06,15,07,03,9.20
2008,06,15,07,04,9.30
2008,06,15,07,05,9.40
2008,06,15,07,06,9.40
2008,06,15,07,07,9.50
2008,06,15,07,08,9.60
2008,06,15,07,09,9.70
2008,06,15,07,10,9.80
2008,06,15,07,11,9.90
2008,06,15,07,12,9.90
2008,06,15,07,13,10.10
2008,06,15,07,14,10.10
2008,06,15,07,15,10.20
2008,06,15,07,16,10.30
2008,06,15,07,17,10.40
2008,06,15,07,18,10.50
2008,06,15,07,19,10.70
2008,06,15,07,20,10.80
2008,06,15,07,21,10.90
2008,06,15,07,22,10.90
2008,06,15,07,23,11.10
2008,06,15,07,24,11.20
2008,06,15,07,25,11.20
2008,06,15,07,26,11.30
2008,06,15,07,27,11.30
2008,06,15,07,28,11.30
2008,06,15,07,29,11.40
2008,06,15,07,30,11.40
2008,06,15,07,31,11.40
2008,06,15,07,32,11.60
2008,06,15,07,33,11.60
2008,06,15,07,34,11.60
2008,06,15,07,35,11.60
2008,06,15,07,36,11.70
2008,06,15,07,37,11.70
2008,06,15,07,38,11.80
2008,06,15,07,39,11.80
2008,06,15,07,40,11.90
2008,06,15,07,41,12.00
2008,06,15,07,42,12.10
2008,06,15,07,43,12.20
2008,06,15,07,44,12.20
2008,06,15,07,45,12.50
2008,06,15,07,46,12.50
2008,06,15,07,47,12.60
2008,06,15,07,48,12.70
2008,06,15,07,49,12.80
2008,06,15,07,50,12.70
2008,06,15,07,51,12.70
2008,06,15,07,52,12.60
2008,06,15,07,53,12.60
2008,06,15,07,54,12.60
2008,06,15,07,55,12.60
2008,06,15,07,56,12.70
2008,06,15,07,57,12.70
2008,06,15,07,58,12.70
2008,06,15,07,59,12.70
2008,06,15,08,00,12.70
2008,06,15,08,01,12.80
2008,06,15,08,02,12.90
2008,06,15,08,03,12.90
2008,06,15,08,04,13.00
2008,06,15,08,05,12.90
2008,06,15,08,06,12.90
2008,06,15,08,07,12.90
2008,06,15,08,08,12.90
2008,06,15,08,09,12.90
2008,06,15,08,10,12.90
2008,06,15,08,11,12.90
2008,06,15,08,12,12.90
2008,06,15,08,13,12.90
2008,06,15,08,14,12.90
2008,06,15,08,15,12.90
2008,06,15,08,16,12.90
2008,06,15,08,17,12.90
2008,06,15,08,18,12.90
2008,06,15,08,19,12.90
2008,06,15,08,20,13.00
2008,06,15,08,21,13.00
2008,06,15,08,22,13.00
2008,06,15,08,23,13.10
2008,06,15,08,24,13.10
2008,06,15,08,25,13.10
2008,06,15,08,26,13.20
2008,06,15,08,27,13.20
2008,06,15,08,28,13.20
2008,06,15,08,29,13.10
2008,06,15,08,30,13.00
2008,06,15,08,31,12.90
2008,06,15,08,32,12.80
2008,06,15,08,33,12.80
2008,06,15,08,34,12.70
2008,06,15,08,35,12.70
2008,06,15,08,36,12.60
2008,06,15,08,37,12.60
2008,06,15,08,38,12.60
2008,06,15,08,39,12.60
2008,06,15,08,40,12.60
2008,06,15,08,41,12.60
2008,06,15,08,42,12.60
2008,06,15,08,43,12.60
2008,06,15,08,44,12.60
2008,06,15,08,45,12.60
2008,06,15,08,46,12.70
2008,06,15,08,47,12.70
2008,06,15,08,48,12.70
2008,06,15,08,49,12.80
2008,06,15,08,50,12.80
2008,06,15,08,51,12.90
2008,06,15,08,52,12.90
2008,06,15,08,53,13.00
2008,06,15,08,54,13.00
2008,06,15,08,55,13.00
2008,06,15,08,56,13.00
2008,06,15,08,57,13.10
2008,06,15,08,58,13.10
2008,06,15,08,59,13.20
2008,06,15,09,00,13.20
2008,06,15,09,01,13.30
2008,06,15,09,02,13.30
2008,06,15,09,03,13.40
2008,06,15,09,04,13.50
2008,06,15,09,05,13.50
2008,06,15,09,06,13.50
2008,06,15,09,07,13.60
2008,06,15,09,08,13.70
2008,06,15,09,09,13.60
2008,06,15,09,10,13.60
2008,06,15,09,11,13.50
2008,06,15,09,12,13.40
2008,06,15,09,13,13.50
2008,06,15,09,14,13.40
2008,06,15,09,15,13.40
2008,06,15,09,16,13.30
2008,06,15,09,17,13.30
2008,06,15,09,18,13.30
2008,06,15,09,19,13.30
2008,06,15,09,20,13.30
2008,06,15,09,21,13.30
2008,06,15,09,22,13.30
2008,06,15,09,23,13.30
2008,06,15,09,24,13.20
2008,06,15,09,25,13.20
2008,06,15,09,26,13.20
2008,06,15,09,27,13.30
2008,06,15,09,28,13.30
2008,06,15,09,29,13.30
2008,06,15,09,30,13.30
2008,06,15,09,31,13.30
2008,06,15,09,32,13.30
2008,06,15,09,33,13.30
2008,06,15,09,34,13.40
2008,06,15,09,35,13.40
2008,06,15,09,36,13.30
2008,06,15,09,37,13.30
2008,06,15,09,38,13.30
2008,06,15,09,39,13.30
2008,06,15,09,40,13.40
2008,06,15,09,41,13.40
2008,06,15,09,42,13.50
2008,06,15,09,43,13.50
2008,06,15,09,44,13.50
2008,06,15,09,45,13.50
2008,06,15,09,46,13.40
2008,06,15,09,47,13.50
2008,06,15,09,48,13.50
2008,06,15,09,49,13.60
2008,06,15,09,50,13.60
2008,06,15,09,51,13.60
2008,06,15,09,52,13.60
2008,06,15,09,53,13.60
2008,06,15,09,54,13.60
2008,06,15,09,55,13.60
2008,06,15,09,56,13.70
2008,06,15,09,57,13.70
2008,06,15,09,58,13.70
2008,06,15,09,59,13.80
2008,06,15,10,00,13.90
2008,06,15,10,01,14.10
2008,06,15,10,02,14.20
2008,06,15,10,03,14.20
2008,06,15,10,04,14.20
2008,06,15,10,05,14.20
2008,06,15,10,06,14.20
2008,06,15,10,07,14.20
2008,06,15,10,08,14.10
2008,06,15,10,09,14.00
2008,06,15,10,10,14.00
2008,06,15,10,11,14.00
2008,06,15,10,12,14.00
2008,06,15,10,13,13.90
2008,06,15,10,14,13.90
2008,06,15,10,15,13.80
2008,06,15,10,16,13.70
2008,06,15,10,17,13.70
2008,06,15,10,18,13.70
2008,06,15,10,19,13.60
2008,06,15,10,20,13.60
2008,06,15,10,21,13.60
2008,06,15,10,22,13.50
2008,06,15,10,23,13.40
2008,06,15,10,24,13.30
2008,06,15,10,25,13.30
2008,06,15,10,26,13.30
2008,06,15,10,27,13.30
2008,06,15,10,28,13.30
2008,06,15,10,29,13.30
2008,06,15,10,30,13.30
2008,06,15,10,31,13.20
2008,06,15,10,32,13.20
2008,06,15,10,33,13.30
2008,06,15,10,34,13.30
2008,06,15,10,35,13.40
2008,06,15,10,36,13.40
2008,06,15,10,37,13.50
2008,06,15,10,38,13.50
2008,06,15,10,39,13.50
2008,06,15,10,40,13.40
2008,06,15,10,41,13.30
2008,06,15,10,42,13.30
2008,06,15,10,43,13.30
2008,06,15,10,44,13.30
2008,06,15,10,45,13.30
2008,06,15,10,46,13.30
2008,06,15,10,47,13.40
2008,06,15,10,48,13.40
2008,06,15,10,49,13.40
2008,06,15,10,50,13.40
2008,06,15,10,51,13.40
2008,06,15,10,52,13.30
2008,06,15,10,53,13.40
2008,06,15,10,54,13.40
2008,06,15,10,55,13.50
2008,06,15,10,56,13.50
2008,06,15,10,57,13.50
2008,06,15,10,58,13.30
2008,06,15,10,59,13.20
2008,06,15,11,00,13.30
2008,06,15,11,01,13.30
2008,06,15,11,02,13.30
2008,06,15,11,03,13.30
2008,06,15,11,04,13.20
2008,06,15,11,05,13.20
2008,06,15,11,06,13.30
2008,06,15,11,07,13.30
2008,06,15,11,08,13.30
2008,06,15,11,09,13.40
2008,06,15,11,10,13.40
2008,06,15,11,11,13.30
2008,06,15,11,12,13.40
2008,06,15,11,13,13.40
2008,06,15,11,14,13.40
2008,06,15,11,15,13.30
2008,06,15,11,16,13.30
2008,06,15,11,17,13.30
2008,06,15,11,18,13.40
2008,06,15,11,19,13.50
2008,06,15,11,20,13.50
2008,06,15,11,21,13.50
2008,06,15,11,22,13.50
2008,06,15,11,23,13.50
2008,06,15,11,24,13.50
2008,06,15,11,25,13.50
2008,06,15,11,26,13.60
2008,06,15,11,27,13.60
2008,06,15,11,28,13.50
2008,06,15,11,29,13.40
2008,06,15,11,30,13.50
2008,06,15,11,31,13.50
2008,06,15,11,32,13.60
2008,06,15,11,33,13.60
2008,06,15,11,34,13.60
2008,06,15,11,35,13.60
2008,06,15,11,36,13.60
2008,06,15,11,37,13.70
2008,06,15,11,38,13.70
2008,06,15,11,39,13.80
2008,06,15,11,40,13.90
2008,06,15,11,41,14.00
2008,06,15,11,42,14.10
2008,06,15,11,43,14.10
2008,06,15,11,44,14.10
2008,06,15,11,45,14.10
2008,06,15,11,46,14.10
2008,06,15,11,47,14.20
2008,06,15,11,48,14.20
2008,06,15,11,49,14.20
2008,06,15,11,50,14.20
2008,06,15,11,51,14.10
2008,06,15,11,52,14.00
2008,06,15,11,53,13.90
2008,06,15,11,54,13.80
2008,06,15,11,55,13.80
2008,06,15,11,56,13.80
2008,06,15,11,57,13.90
2008,06,15,11,58,14.10
2008,06,15,11,59,14.20
2008,06,15,12,00,14.10
2008,06,15,12,01,14.10
2008,06,15,12,02,14.10
2008,06,15,12,03,14.20
2008,06,15,12,04,14.20
2008,06,15,12,05,14.10
2008,06,15,12,06,14.00
2008,06,15,12,07,14.00
2008,06,15,12,08,13.90
2008,06,15,12,09,13.90
2008,06,15,12,10,13.90
2008,06,15,12,11,13.90
2008,06,15,12,12,13.90
2008,06,15,12,13,14.00
2008,06,15,12,14,14.00
2008,06,15,12,15,13.90
2008,06,15,12,16,13.90
2008,06,15,12,17,14.00
2008,06,15,12,18,14.10
2008,06,15,12,19,14.30
2008,06,15,12,20,14.40
2008,06,15,12,21,14.40
2008,06,15,12,22,14.50
2008,06,15,12,23,14.40
2008,06,15,12,24,14.20
2008,06,15,12,25,14.20
2008,06,15,12,26,14.10
2008,06,15,12,27,14.20
2008,06,15,12,28,14.20
2008,06,15,12,29,14.20
2008,06,15,12,30,14.20
2008,06,15,12,31,14.20
2008,06,15,12,32,14.20
2008,06,15,12,33,14.20
2008,06,15,12,34,14.30
2008,06,15,12,35,14.30
2008,06,15,12,36,14.50
2008,06,15,12,37,14.50
2008,06,15,12,38,14.40
2008,06,15,12,39,14.40
2008,06,15,12,40,14.50
2008,06,15,12,41,14.60
2008,06,15,12,42,14.50
2008,06,15,12,43,14.40
2008,06,15,12,44,14.40
2008,06,15,12,45,14.50
2008,06,15,12,46,14.40
2008,06,15,12,47,14.50
2008,06,15,12,48,14.60
2008,06,15,12,49,14.60
2008,06,15,12,50,14.70
2008,06,15,12,51,14.70
2008,06,15,12,52,14.50
2008,06,15,12,53,14.40
2008,06,15,12,54,14.40
2008,06,15,12,55,14.40
2008,06,15,12,56,14.40
2008,06,15,12,57,14.30
2008,06,15,12,58,14.20
2008,06,15,12,59,14.20
2008,06,15,13,00,14.10
2008,06,15,13,01,14.20
2008,06,15,13,02,14.20
2008,06,15,13,03,14.20
2008,06,15,13,04,14.20
2008,06,15,13,05,14.40
2008,06,15,13,06,14.50
2008,06,15,13,07,14.60
2008,06,15,13,08,14.60
2008,06,15,13,09,14.60
2008,06,15,13,10,14.60
2008,06,15,13,11,14.60
2008,06,15,13,12,14.70
2008,06,15,13,13,14.80
2008,06,15,13,14,14.80
2008,06,15,13,15,14.80
2008,06,15,13,16,14.70
2008,06,15,13,17,14.60
2008,06,15,13,18,14.50
2008,06,15,13,19,14.40
2008,06,15,13,20,14.40
2008,06,15,13,21,14.50
2008,06,15,13,22,14.60
2008,06,15,13,23,14.60
2008,06,15,13,24,14.40
2008,06,15,13,25,14.20
2008,06,15,13,26,14.10
2008,06,15,13,27,14.10
2008,06,15,13,28,14.10
2008,06,15,13,29,14.20
2008,06,15,13,30,14.40
2008,06,15,13,31,14.40
2008,06,15,13,32,14.40
2008,06,15,13,33,14.20
2008,06,15,13,34,14.20
2008,06,15,13,35,14.30
2008,06,15,13,36,14.30
2008,06,15,13,37,14.40
2008,06,15,13,38,14.50
2008,06,15,13,39,14.70
2008,06,15,13,40,14.70
2008,06,15,13,41,14.70
2008,06,15,13,42,14.70
2008,06,15,13,43,14.80
2008,06,15,13,44,14.80
2008,06,15,13,45,14.80
2008,06,15,13,46,14.80
2008,06,15,13,47,14.70
2008,06,15,13,48,14.70
2008,06,15,13,49,14.60
2008,06,15,13,50,14.50
2008,06,15,13,51,14.50
2008,06,15,13,52,14.60
2008,06,15,13,53,14.80
2008,06,15,13,54,14.90
2008,06,15,13,55,15.10
2008,06,15,13,56,15.20
2008,06,15,13,57,15.30
2008,06,15,13,58,15.40
2008,06,15,13,59,15.40
2008,06,15,14,00,15.50
2008,06,15,14,01,15.50
2008,06,15,14,02,15.60
2008,06,15,14,03,15.50
2008,06,15,14,04,15.60
2008,06,15,14,05,15.70
2008,06,15,14,06,15.70
2008,06,15,14,07,15.70
2008,06,15,14,08,15.50
2008,06,15,14,09,15.50
2008,06,15,14,10,15.40
2008,06,15,14,11,15.30
2008,06,15,14,12,15.10
2008,06,15,14,13,14.70
2008,06,15,14,14,14.50
2008,06,15,14,15,14.40
2008,06,15,14,16,14.30
2008,06,15,14,17,14.30
2008,06,15,14,18,14.30
2008,06,15,14,19,14.30
2008,06,15,14,20,14.30
2008,06,15,14,21,14.30
2008,06,15,14,22,14.20
2008,06,15,14,23,14.10
2008,06,15,14,24,14.00
2008,06,15,14,25,14.10
2008,06,15,14,26,14.20
2008,06,15,14,27,14.20
2008,06,15,14,28,14.20
2008,06,15,14,29,14.00
2008,06,15,14,30,14.00
2008,06,15,14,31,14.20
2008,06,15,14,32,14.10
2008,06,15,14,33,14.10
2008,06,15,14,34,14.10
2008,06,15,14,35,14.10
2008,06,15,14,36,14.10
2008,06,15,14,37,14.10
2008,06,15,14,38,14.10
2008,06,15,14,39,14.00
2008,06,15,14,40,14.00
2008,06,15,14,41,14.10
2008,06,15,14,42,14.30
2008,06,15,14,43,14.50
2008,06,15,14,44,14.60
2008,06,15,14,45,14.70
2008,06,15,14,46,14.70
2008,06,15,14,47,14.90
2008,06,15,14,48,15.00
2008,06,15,14,49,15.10
2008,06,15,14,50,15.10
2008,06,15,14,51,15.20
2008,06,15,14,52,15.20
2008,06,15,14,53,15.30
2008,06,15,14,54,15.30
2008,06,15,14,55,15.30
2008,06,15,14,56,15.40
2008,06,15,14,57,15.40
2008,06,15,14,58,15.30
2008,06,15,14,59,15.20
2008,06,15,15,00,15.10
2008,06,15,15,01,15.00
2008,06,15,15,02,15.20
2008,06,15,15,03,15.30
2008,06,15,15,04,15.30
2008,06,15,15,05,15.30
2008,06,15,15,06,15.30
2008,06,15,15,07,15.30
2008,06,15,15,08,15.30
2008,06,15,15,09,15.30
2008,06,15,15,10,15.30
2008,06,15,15,11,15.40
2008,06,15,15,12,15.50
2008,06,15,15,13,15.60
2008,06,15,15,14,15.70
2008,06,15,15,15,15.80
2008,06,15,15,16,15.90
2008,06,15,15,17,15.80
2008,06,15,15,18,15.80
2008,06,15,15,19,15.70
2008,06,15,15,20,15.60
2008,06,15,15,21,15.60
2008,06,15,15,22,15.70
2008,06,15,15,23,15.80
2008,06,15,15,24,15.80
2008,06,15,15,25,15.80
2008,06,15,15,26,15.80
2008,06,15,15,27,15.90
2008,06,15,15,28,15.80
2008,06,15,15,29,16.00
2008,06,15,15,30,16.10
2008,06,15,15,31,16.20
2008,06,15,15,32,16.30
2008,06,15,15,33,16.40
2008,06,15,15,34,16.40
2008,06,15,15,35,16.60
2008,06,15,15,36,16.70
2008,06,15,15,37,16.90
2008,06,15,15,38,16.90
2008,06,15,15,39,16.80
2008,06,15,15,40,16.90
2008,06,15,15,41,16.90
2008,06,15,15,42,16.90
2008,06,15,15,43,16.90
2008,06,15,15,44,16.90
2008,06,15,15,45,16.80
2008,06,15,15,46,16.80
2008,06,15,15,47,16.70
2008,06,15,15,48,16.70
2008,06,15,15,49,16.70
2008,06,15,15,50,16.70
2008,06,15,15,51,16.70
2008,06,15,15,52,16.80
2008,06,15,15,53,16.60
2008,06,15,15,54,16.40
2008,06,15,15,55,16.20
2008,06,15,15,56,16.00
2008,06,15,15,57,15.90
2008,06,15,15,58,15.90
2008,06,15,15,59,15.90
2008,06,15,16,00,15.90
2008,06,15,16,01,16.00
2008,06,15,16,02,16.10
2008,06,15,16,03,16.10
2008,06,15,16,04,16.20
2008,06,15,16,05,16.30
2008,06,15,16,06,16.40
2008,06,15,16,07,16.60
2008,06,15,16,08,16.60
2008,06,15,16,09,16.60
2008,06,15,16,10,16.60
2008,06,15,16,11,16.70
2008,06,15,16,12,16.70
2008,06,15,16,13,16.80
2008,06,15,16,14,16.90
2008,06,15,16,15,17.00
2008,06,15,16,16,17.00
2008,06,15,16,17,16.90
2008,06,15,16,18,16.90
2008,06,15,16,19,16.80
2008,06,15,16,20,16.70
2008,06,15,16,21,16.70
2008,06,15,16,22,16.70
2008,06,15,16,23,16.80
2008,06,15,16,24,16.70
2008,06,15,16,25,16.70
2008,06,15,16,26,16.60
2008,06,15,16,27,16.60
2008,06,15,16,28,16.60
2008,06,15,16,29,16.50
2008,06,15,16,30,16.40
2008,06,15,16,31,16.40
2008,06,15,16,32,16.40
2008,06,15,16,33,16.40
2008,06,15,16,34,16.40
2008,06,15,16,35,16.30
2008,06,15,16,36,16.30
2008,06,15,16,37,16.40
2008,06,15,16,38,16.60
2008,06,15,16,39,16.70
2008,06,15,16,40,16.80
2008,06,15,16,41,16.90
2008,06,15,16,42,16.90
2008,06,15,16,43,16.90
2008,06,15,16,44,16.90
2008,06,15,16,45,17.00
2008,06,15,16,46,16.90
2008,06,15,16,47,16.80
2008,06,15,16,48,16.70
2008,06,15,16,49,16.70
2008,06,15,16,50,16.70
2008,06,15,16,51,16.70
2008,06,15,16,52,16.60
2008,06,15,16,53,16.60
2008,06,15,16,54,16.70
2008,06,15,16,55,16.80
2008,06,15,16,56,16.80
2008,06,15,16,57,16.90
2008,06,15,16,58,17.00
2008,06,15,16,59,17.00
2008,06,15,17,00,17.20
2008,06,15,17,01,17.30
2008,06,15,17,02,17.40
2008,06,15,17,03,17.30
2008,06,15,17,04,17.10
2008,06,15,17,05,16.90
2008,06,15,17,06,16.80
2008,06,15,17,07,16.90
2008,06,15,17,08,17.00
2008,06,15,17,09,17.00
2008,06,15,17,10,17.10
2008,06,15,17,11,17.10
2008,06,15,17,12,17.10
2008,06,15,17,13,17.10
2008,06,15,17,14,17.20
2008,06,15,17,15,17.10
2008,06,15,17,16,17.10
2008,06,15,17,17,17.10
2008,06,15,17,18,17.10
2008,06,15,17,19,17.20
2008,06,15,17,20,17.30
2008,06,15,17,21,17.30
2008,06,15,17,22,17.30
2008,06,15,17,23,17.10
2008,06,15,17,24,17.10
2008,06,15,17,25,17.10
2008,06,15,17,26,17.00
2008,06,15,17,27,16.80
2008,06,15,17,28,16.70
2008,06,15,17,29,16.70
2008,06,15,17,30,16.70
2008,06,15,17,31,16.60
2008,06,15,17,32,16.50
2008,06,15,17,33,16.60
2008,06,15,17,34,16.40
2008,06,15,17,35,16.40
2008,06,15,17,36,16.50
2008,06,15,17,37,16.60
2008,06,15,17,38,16.80